Вернуться в каталог

COSMOS 1700

АктивенНавигацияGEO
NORAD 16199·PAYLOAD·🇷🇺 Russia

Запущен Oct 25, 1985 с Baikonur Cosmodrome

Loading…

TLE

СвежийSource: Space-Track

Эпоха: Sep 14, 2026, 15:57 UTC

1 16199U 85102A   26257.66480141 -.00000274  00000-0  00000-0 0  9998
2 16199   9.5665 318.3289 0006295 245.1499 122.3380  1.00290157152573

Отслеживайте COSMOS 1700 в реальном времени с AllMySat

Download on the App Store